STARLINK-35317, 66184

Orbit data source: Space-Track

STARLINK-35317, 66184 is a payload satellite owned by SpaceX/Seattle (US) in LEO that was launched on Sun, 26 Oct 2025 UTC via an FALCON 9 launch vehicle from the Air Force Eastern Test Range (AFETR). Payload-class satellites include a variety of spacecraft equipped with specific instruments for various scientific and technological missions. These include communications satellites like Starlink; space stations such as the ISS; scientific satellites like the Hubble; Earth observation satellites from companies like Planet Labs, Umbra, and HawkEye 360; GPS; miniature CubeSats for education and research; and military/defense satellites.

Loading next visibility...
Identifier
66184, 2025-243H
Orbit
LEO
Country
Flag of USUS
Related business
Manufacturer
SpaceX/Seattle
Mission
Operational Commercial Communications
Bus & Motor
STARLINK V2MO, Unknown motor
Mass
575 kg wet, ~530 kg dry
Launch date (UTC)
2025-10-26 (8 months ago)
Launch vehicle
FALCON 9
Launch site
Air Force Eastern Test Range (AFETR)
Object type
Payload
Rocket body
Debris
Shape & HBR
Box + 2 Pan, 17.7 m
Radar Cross Section
36.964 m², Large (>1 m²)

Expand to show TLE details & history
Last TLE update: 14 hours ago

TLE from 14 hours ago
0 STARLINK-35317
1 66184U 25243H   26171.28073940  .00020117  00000-0  60482-3 0  9995
2 66184  53.1608 128.5385 0001306  91.7208 268.3944 15.34405929 36365
Epoch: 2026-06-20T06:44Z
TLE epoch observation values (Epoch: 2026-06-20T06:44:15.884Z)
Latitude
-0.00002°
Longitude
118.97468°
Altitude
463.612 km
Speed
7.636 km/s
True Right ascension
08h 34m 09s
True Declination
0° 00' 00"
Sunlit
Object was in daylight at epoch
Visualization orbit readout
Latitude
Unknown
Longitude
Unknown
Altitude
Unknown
Speed
Unknown
Apparent Right ascension
Unknown
Apparent Declination
Unknown
Sunlit
N/A
Visualization observer readout
Local Sidereal Time
07:18:18
Azimuth
Unknown
Elevation
Unknown
Doppler factor
Unknown
Orbital elements
Apogee altitude
463.836 km
Perigee altitude
462.049 km
Semi-major axis
6,841.079 km
Eccentricity
0.00013
Inclination
53.1608°
RAAN
128.5385°
Arg. of periapsis
91.7208°
True anomaly
268.37944°
Mean anomaly
268.3944°
Eccentric anomaly
268.38692°
Mean motion
3.8358 °/min
Orbital period
93.85 mins
BSTAR
0.00060482
Loading maneuver chart data...
Computing Atmospheric mass density...
Loading historical data...
Loading historical data...
Loading historical data...
Loading historical data...
Loading historical data...
Loading historical data...
Loading historical data...

Documentation

Showing up to 5 results
|